Reflectivity
-20 -20 -20 -20 -20 -20 -20 -20 -20 -20 -20 -20 -20 -20 -20 -20 -20 -20 28 -20 -20 18 -20 -20 -20 -20 -20 -20 -20 -20 -20 -20 -20 -20 -20 -20 -20 -20 -20 -20 -20 -20 -20
-20 -20 -20 -20 -20 -20 -20 -20 -20 -20 -20 -20 -20 -20 -20 -20 -20 -20 -20 -20 4 -20 -20 -8 -14 -20 -20 -20 -20 -20 -7 -20 -20 -20 -20 -20 -20 -20 -20 -20 -20 -20 -20
-20 -20 -20 -20 -20 -20 -20 -20 -20 -20 -20 -20 -20 -20 -20 -20 -20 -20 -20 -20 -20 14 -10 22 -3 2 -20 -3 -10 -20 27 21 1 -19 -20 -20 -20 -20 -20 -20 -20 -20 -20
-20 -20 -20 -20 -20 -20 -20 -20 -20 -20 -20 -20 -20 -20 -20 -20 -20 -20 -20 -20 -20 -20 -20 30 19 25 15 7 -5 -20 -8 3 17 18 -15 -2 -20 -20 -20 -20 -20 -20 -20
-20 -20 -20 -20 -20 -20 -20 -20 -20 -20 -20 -20 -20 -20 -20 -20 -20 -20 -20 -20 -8 6 -20 -20 -20 -19 -4 12 15 5 18 21 -18 22 21 19 -7 -20 6 -18 12 14 10
-20 -20 -20 -20 -20 -20 -20 -20 -20 -20 -20 -20 -20 -20 -20 -20 -20 -20 -20 -20 -20 -20 11 -20 -15 -20 11 7 11 16 18 25 26 17 16 22 24 19 17 12 7 29 30
-20 -20 -20 -20 -20 -20 -20 -20 -20 -20 -20 -20 -20 -20 -20 -20 -20 -20 -20 -20 -20 -20 -20 15 16 -16 -13 -1 14 4 13 16 23 25 10 -1 26 25 22 19 15 12 10
-20 -20 -20 -20 -20 -20 -20 -20 -20 -20 -20 -20 -20 -20 -20 -20 -20 -20 -20 -20 -20 -20 -20 -20 -8 -20 -17 -7 14 11 8 14 25 15 24 25 22 -13 -2 23 26 -8 17
-20 -20 -20 -20 -20 -20 -20 -20 -20 -20 -20 -20 -20 -20 -20 -20 -20 -20 -20 -20 -20 -20 -20 -20 -20 -20 4 -9 13 13 16 15 15 15 29 23 28 22 8 21 20 -2 22
-20 -20 -20 -20 -20 -20 -20 -20 -20 -20 -20 -20 -20 -20 -20 -20 -20 -20 -20 -20 -20 -20 -20 -20 -20 -20 -20 -20 -4 14 -5 15 10 9 20 22 21 25 23 22 21 24 21
-20 -20 -20 -20 -20 -20 -20 -20 -20 -20 -20 -20 -20 -20 -20 -20 -20 -20 -20 -20 -20 -20 -20 -20 -20 -20 -20 -20 -20 -7 -2 -6 -16 1 12 9 7 15 20 22 25 24 23
-20 -20 -20 -20 -20 -20 -20 -20 -20 -20 -20 -20 -20 -20 -20 -20 -20 -20 -20 -20 -20 -20 -20 -20 -20 -20 -20 -20 -20 -20 -20 9 11 12 -8 12 -2 12 9 21 19 6 17
-20 -20 -20 -20 -20 -20 -20 -20 -20 -20 -20 -20 -20 -20 -20 -20 -20 -20 -20 -20 -20 -20 -20 -20 -20 -20 -20 -20 -20 -9 -8 4 16 13 -19 -20 -7 -1 8 19 20 13 7
-20 -20 -20 -20 -20 -20 -20 -20 -20 -20 -20 -20 -20 -20 -20 -20 -20 -20 -20 -20 -20 -20 -20 -20 -20 -20 -20 -6 -20 -9 5 -6 14 -1 -18 13 -10 8 -6 13 6 5 -12
-20 -20 -20 -20 -20 -20 -20 -20 -20 -20 -20 -20 -20 -20 -20 -20 -20 -20 -20 -20 -20 -20 -20 -20 -20 -20 -20 -15 -18 -20 9 3 -1 -5 20 30 4 12 12 -6 -17 13 19
-20 -20 -20 -20 -20 -20 -20 -20 -20 -20 -20 -20 -20 -20 -20 -20 -20 -20 -20 -20 -20 -20 -8 -20 -20 -20 -3 0 -3 -12 -8 6 8 26 17 32 29 34 18 23 10 -9 -20
-20 -20 -20 -20 -20 -20 -20 -20 -20 -20 -20 -20 -20 -20 -20 -20 -20 -20 -20 -20 -20 -20 -20 -20 -20 -20 -19 0 -6 -20 -5 12 9 24 24 21 16 20 19 3 -20 -20 -20
-20 -20 -20 -20 -20 -20 -20 -20 -20 -20 -20 -20 -20 -10 -20 -11 -20 -20 -20 -20 -20 -20 -20 -20 -20 -20 2 8 1 -13 17 16 14 28 25 -0 9 8 3 -15 -14 -15 -20
-20 -20 -20 -20 -20 -20 -20 -20 -20 -20 -20 -20 4 4 -20 -20 -20 -20 -20 -20 -20 -20 -20 -20 -20 -20 -20 -20 -20 -20 -20 -20 -20 -20 -20 -20 -20 -20 -20 -20 -20 -20 -20
-20 -20 -20 -20 -20 -20 -20 -20 -20 -20 -20 -20 -12 12 -17 -20 -20 -20 -20 -20 -20 -20 -20 -20 -20 -20 -20 -20 -20 -20 -20 -20 -20 -20 -20 -20 -20 -20 -20 -20 -20 -20 -20
-20 -20 -20 -20 -20 -20 -20 -20 -14 -2 -20 -20 -15 -20 -20 -20 -20 -20 -20 -20 -20 -20 -20 -20 -20 -20 -20 -20 -20 -20 -20 -20 -20 -20 -20 -20 -20 -20 -20 -20 -20 -20 -20
-20 -20 -20 -20 -20 -20 -20 -20 -20 -20 -20 -20 -20 -20 -20 -20 -20 -20 -20 -20 -20 -20 -20 -20 -20 -20 -20 -20 -20 -20 -20 -20 -20 -20 -20 -20 -20 -20 -20 -20 -20 -20 -20
-20 -20 -20 -20 -20 -20 -20 -20 -20 -20 -20 -20 -20 -20 -20 -20 -20 -20 -20 -20 -20 -20 -20 -20 -20 -20 -20 -20 -20 -20 -20 -20 -20 -20 -20 -20 -20 -20 -20 -20 -20 -20 -20
-20 -20 -20 -20 -20 -20 -20 -20 -20 -20 -20 -20 -20 -20 -20 -20 -20 -20 -20 -20 -20 -20 -20 -20 -20 -20 -20 -20 -20 -20 -20 -20 -20 -20 -20 -20 -20 -20 -20 -20 -20 -20 -20
-20 -20 -20 -20 -20 -20 -20 -20 -20 -20 -20 -20 -20 -20 -20 -20 -20 -20 -20 -20 -20 -20 -20 -20 -20 -20 -20 -20 -20 -20 -20 -20 -20 -20 -20 -20 -20 -20 -20 -20 -20 -20 -20
-20 -20 -20 -20 -20 -20 -20 -20 -20 -20 -20 -20 -20 -20 -20 -20 -20 -20 -20 -20 -20 -20 -20 -20 -20 -20 -20 -20 -20 -20 -20 -20 -20 -20 -20 -20 -20 -20 -20 -20 -20 -20 -20
Wind_Speed
6 5 5 6 7 7 6 6 5 5 2 2 2 5 7 5 5 7 10 8 6 8 8 7 6 6 7 8 8 7 7 5 5 4 0 1 5 5 5 5 5 6 7
2 8 7 6 4 5 6 6 6 6 4 2 3 2 4 5 7 5 9 9 7 5 6 7 6 7 4 6 9 11 6 5 6 5 4 2 3 4 6 5 5 7 5
5 7 8 6 6 7 7 7 7 7 6 6 4 4 0 1 3 3 5 10 11 10 6 5 5 7 5 7 6 10 11 9 5 9 6 4 6 3 3 8 5 6 5
7 6 6 6 6 4 4 6 4 3 5 6 4 4 3 3 3 5 7 8 10 8 8 7 6 6 7 8 8 7 9 4 8 2 9 2 4 5 2 2 4 5 7
7 7 6 2 6 4 3 4 7 5 1 3 4 3 5 4 4 4 4 5 5 8 9 8 7 8 4 6 7 7 7 10 7 9 3 8 3 2 3 4 4 3 3
6 6 5 4 5 5 5 5 6 6 6 1 3 4 5 6 5 5 5 4 3 4 7 7 9 10 9 7 5 9 10 8 11 8 8 7 9 8 4 3 2 3 2
6 4 6 4 5 5 7 7 7 7 7 7 5 5 4 4 5 6 4 5 4 3 5 6 7 6 9 9 8 9 10 10 7 12 8 8 8 4 6 4 2 3 1
5 5 4 4 4 5 6 7 7 6 7 7 7 6 6 3 3 4 4 4 3 4 6 4 5 6 6 5 7 7 7 7 7 10 11 7 7 4 3 4 6 2 0
5 5 3 5 4 5 5 5 6 6 7 7 7 7 7 8 6 8 6 5 6 8 9 8 5 6 5 6 5 6 8 7 8 8 8 6 2 3 4 2 3 5 6
6 4 3 4 3 4 4 5 6 6 6 7 6 5 7 7 7 6 7 7 7 8 8 9 9 7 4 3 3 4 3 4 3 3 4 3 2 3 3 3 2 2 3
6 4 3 3 2 4 4 5 6 7 7 7 7 7 7 7 8 8 8 8 7 6 6 7 7 7 7 6 4 5 4 4 3 4 5 6 6 4 4 3 2 3 2
6 3 2 1 3 5 5 5 6 6 6 6 6 7 7 7 7 7 7 7 7 7 7 7 8 9 8 7 5 4 4 4 4 6 7 6 5 6 5 3 4 4 1
6 2 1 1 5 5 5 5 5 5 5 6 7 7 6 7 6 7 7 6 6 8 9 9 8 8 9 8 8 7 6 8 6 5 7 8 8 7 5 5 4 2 3
5 3 2 2 5 5 4 4 5 5 6 6 6 6 6 6 6 6 6 8 7 7 7 7 8 8 8 8 8 8 7 7 7 6 5 5 7 8 7 4 5 5 4
5 4 2 2 3 4 5 5 6 6 6 6 6 5 6 6 6 6 5 5 7 7 8 8 9 8 7 6 8 8 8 8 8 7 8 5 11 12 8 4 4 4 4
5 5 3 2 3 5 4 5 6 5 6 6 6 6 6 6 6 6 8 8 10 10 9 9 9 9 8 17 17 13 9 10 9 8 10 10 12 10 11 10 7 5 3
4 5 4 4 5 4 4 6 5 5 6 5 6 6 6 7 7 7 8 9 10 9 10 11 11 12 10 19 19 18 9 9 8 7 6 6 6 7 5 6 6 6 4
4 5 4 4 4 3 6 6 6 5 6 5 6 5 6 7 6 6 8 7 7 7 6 9 8 9 10 17 17 16 8 8 7 6 4 3 3 2 2 2 1 1 3
5 5 6 5 3 5 4 6 6 5 5 6 6 5 6 7 7 6 7 6 7 7 8 6 8 8 6 12 11 7 4 5 4 3 3 2 1 1 2 3 3 2 3
5 5 6 4 4 3 6 6 5 5 5 6 5 5 5 7 5 6 6 4 5 5 6 2 3 9 5 12 10 6 3 4 2 2 2 6 4 5 7 5 5 4 2
6 5 5 5 4 4 6 7 6 5 5 6 5 5 6 5 5 5 4 4 2 2 3 4 4 5 6 7 11 11 4 3 3 3 2 2 6 6 7 6 3 2 3
5 4 5 5 4 6 7 7 5 4 5 5 5 5 4 4 4 5 4 4 4 4 3 4 3 3 5 8 8 9 8 8 4 3 3 3 7 8 8 5 6 6 5
5 5 6 6 4 5 6 6 5 5 5 5 5 4 5 5 4 3 2 1 2 3 2 3 3 1 2 1 4 5 5 5 2 1 3 6 8 9 7 6 7 5 3
6 5 9 7 7 6 6 5 6 6 5 5 5 5 5 4 3 2 2 2 3 2 3 2 2 0 1 3 4 4 5 9 5 6 5 7 7 6 4 4 4 2 2
6 6 8 8 8 8 7 7 7 7 5 6 5 5 3 4 4 4 3 3 3 3 3 2 2 2 2 1 3 4 3 2 5 6 3 3 2 2 3 2 3 3 2
7 6 6 9 10 9 8 8 7 6 6 6 4 4 3 3 4 4 3 7 6 6 6 4 3 2 1 3 4 5 6 7 8 3 3 2 2 2 3 3 3 3 4
Wind_Direction
240 224 80 31 13 350 334 315 310 286 244 251 214 162 192 205 197 208 256 273 226 211 205 199 202 200 207 210 187 192 181 205 166 123 166 250 208 209 216 207 202 189 186
291 61 49 25 356 330 351 342 317 308 289 243 252 177 160 196 202 194 223 260 290 258 213 215 211 217 218 222 194 197 197 177 179 153 116 226 307 256 218 209 208 199 180
59 59 66 58 56 42 14 352 337 333 329 336 339 333 315 142 161 216 227 233 246 267 283 268 203 221 206 221 220 204 212 204 205 180 152 182 218 159 214 217 201 193 187
81 69 73 63 75 45 5 340 333 316 321 326 323 304 267 272 239 199 205 211 211 211 223 241 276 236 226 229 218 214 205 204 203 224 222 210 141 181 204 276 216 199 197
121 121 107 67 102 77 350 334 330 336 64 343 313 299 293 286 287 293 267 229 204 191 197 211 221 245 236 234 237 241 211 208 204 213 194 231 237 205 138 197 236 244 205
110 101 99 58 59 35 8 347 330 323 339 309 292 279 272 284 304 306 310 279 246 228 203 201 214 219 236 241 240 246 245 224 218 208 212 209 212 215 204 185 177 203 238
112 97 77 44 46 23 16 358 356 341 336 339 338 322 288 281 284 290 292 307 302 280 252 195 203 215 207 227 238 240 243 238 219 216 211 218 232 226 213 209 151 154 350
122 106 95 73 39 46 34 8 355 355 4 4 352 336 332 347 339 353 340 327 324 323 332 303 204 207 214 215 231 240 243 238 234 221 227 221 228 194 208 216 178 123 164
128 103 69 79 37 48 45 13 11 17 23 3 8 8 17 20 9 2 358 3 360 356 359 347 332 240 224 201 216 240 240 229 234 231 226 225 217 149 146 160 164 181 188
141 102 66 73 48 61 47 31 26 31 27 11 5 17 18 11 2 3 9 7 2 351 353 351 354 10 2 333 253 256 257 229 210 214 209 112 94 63 48 60 79 65 146
96 68 51 58 78 71 55 49 28 36 22 8 5 32 21 20 23 18 9 1 359 354 1 350 348 357 358 6 331 302 279 243 95 51 90 91 100 90 87 88 98 95 94
101 80 59 32 94 76 60 51 38 37 22 10 26 34 28 25 27 12 10 4 357 12 18 15 19 24 18 15 20 39 32 72 98 103 99 101 101 98 101 105 109 131 159
101 90 20 110 97 80 59 45 48 35 30 33 39 38 30 32 27 16 5 7 13 27 30 31 36 37 33 34 39 45 52 80 65 85 113 124 124 115 116 112 115 93 83
128 101 15 15 102 83 79 47 48 39 34 50 44 40 35 32 28 22 21 19 25 38 46 45 43 42 47 54 55 57 55 58 74 78 95 114 115 113 106 100 112 112 99
142 128 105 12 97 91 65 50 52 42 31 51 54 48 49 40 38 35 41 41 43 47 49 56 58 58 56 58 67 72 67 60 61 70 73 69 88 101 114 117 105 110 108
127 122 133 114 84 74 44 65 60 34 35 50 50 48 52 51 51 39 48 49 52 43 43 56 65 68 69 71 74 67 66 65 63 46 48 46 45 75 96 109 125 145 137
101 129 133 110 78 74 62 65 61 51 51 45 47 57 59 65 50 46 56 49 55 56 56 57 56 58 63 74 80 81 73 69 64 57 46 62 54 48 38 47 44 24 17
133 135 127 109 98 81 77 82 65 65 59 54 57 72 81 77 67 59 63 57 57 57 56 61 59 66 67 73 77 77 70 73 66 63 74 80 77 27 354 59 102 293 260
82 88 96 97 76 86 97 95 81 86 94 79 82 83 85 83 74 73 68 62 69 69 68 62 66 66 56 71 72 87 87 92 112 107 41 113 159 32 356 358 256 319 7
104 128 129 124 157 136 113 122 113 113 94 92 89 91 91 91 90 84 79 74 80 79 90 114 103 89 52 56 55 69 73 73 74 72 90 44 32 25 18 29 20 24 6
120 108 150 138 112 107 98 87 101 109 96 96 98 93 82 84 94 98 100 105 135 58 53 77 73 74 79 48 53 50 48 38 45 53 43 34 25 3 349 351 352 284 320
127 163 125 123 107 98 113 128 119 111 111 115 118 118 130 136 139 144 188 181 165 134 137 109 71 59 61 63 43 37 39 29 38 30 40 6 346 339 330 345 325 330 349
170 166 137 123 130 140 140 139 132 140 150 141 144 156 162 162 171 158 181 151 116 109 92 93 98 48 66 94 53 33 41 17 58 39 327 336 341 338 344 341 324 331 324
186 179 135 160 180 166 145 146 152 168 178 170 171 147 134 132 120 89 37 61 43 51 93 76 87 189 48 45 33 23 16 26 37 11 335 314 324 321 296 309 317 281 274
187 181 167 162 178 170 159 164 175 180 201 163 153 143 154 129 93 72 36 92 59 72 109 76 90 56 40 9 19 5 357 352 327 347 329 328 328 334 325 310 291 293 298
169 179 186 165 167 169 173 174 183 198 176 156 165 171 164 162 148 137 75 74 90 72 75 75 85 8 343 351 347 338 335 332 327 352 313 309 340 330 329 333 330 336 325